Weather History for KI75 - November, 2012

Change the Weather History Date:

Sunday, November 11, 2012

  Actual Average (KLWD) Record (KLWD)
Temperature  
Mean Temperature 44 °F 42 °F  
Max Temperature 66 °F 51 °F 75 °F (1964)
Min Temperature 23 °F 33 °F 4 °F (1986)
Degree Days  
Heating Degree Days 20 23  
Month to date heating degree days 226  
Since 1 July heating degree days 710  
Cooling Degree Days 0 0  
Month to date cooling degree days 0  
Year to date cooling degree days 946  
Moisture  
Dew Point 34 °F    
Average Humidity 83    
Maximum Humidity 94    
Minimum Humidity 54    
Precipitation  
Precipitation 0.79 in 0.08 in 1.82 in (1982)
Month to date precipitation 1.08  
Sea Level Pressure  
Sea Level Pressure 29.87 in    
Wind  
Wind Speed 12 mph (West)    
Max Wind Speed 18 mph    
Max Gust Speed 24 mph    
Visibility 9 miles    
Events Rain , Snow    
T = Trace of Precipitation, MM = Missing Value Source: NWS Daily Summary

Daily Weather History Graph

Daily Weather History Graph

Search for Another Location

Airport or City:

Trip Planner

Search our weather history database for the weather conditions in past years. The results will help you decide how hot, cold, wet, or windy it might be!

Date:

Astronomy

Nov. 11, 2012 Rise Set
Actual Time 6:58 AM CST 4:59 PM CST
Civil Twilight 6:28 AM CST 5:28 PM CST
Nautical Twilight 5:55 AM CST 6:01 PM CST
Astronomical Twilight 5:23 AM CST 6:33 PM CST
Moon 4:11 AM CST (11/11) 3:23 PM CST (11/11)
Length of Visible Light 10h 59m
Length of Day
10h 00m
Waning Crescent, 7% of the Moon is Illuminated
Nov 11
Waning Crescent
Nov 13
New
Nov 20
First Quarter
Nov 28
Full
Dec 6
Last Quarter

Hourly Weather History & Observations

Time (CST) Temp. Windchill Dew Point Humidity Pressure Visibility Wind Dir Wind Speed Gust Speed Precip Events Conditions
12:15 AM 66.4 °F - 49.1 °F 54% 29.69 in 10.0 mi South 16.1 mph 23.0 mph N/A   Mostly Cloudy
12:35 AM 66.4 °F - 49.8 °F 55% 29.70 in 10.0 mi South 15.0 mph 23.0 mph N/A   Overcast
12:55 AM 66.7 °F - 50.9 °F 57% 29.71 in 10.0 mi SSW 12.7 mph 18.4 mph N/A   Overcast
1:15 AM 66.4 °F - 50.9 °F 57% 29.71 in 10.0 mi SSW 13.8 mph - N/A   Overcast
1:35 AM 65.3 °F - 50.9 °F 60% 29.72 in 10.0 mi SW 12.7 mph - N/A   Overcast
1:55 AM 60.4 °F - 53.8 °F 79% 29.72 in 10.0 mi SSW 11.5 mph - 0.01 in Rain Light Rain
2:15 AM 59.7 °F - 54.0 °F 81% 29.72 in 10.0 mi South 9.2 mph - N/A Rain Light Rain
2:35 AM 59.5 °F - 54.0 °F 82% 29.74 in 10.0 mi South 12.7 mph - N/A Rain Light Rain
2:55 AM 59.2 °F - 53.6 °F 82% 29.70 in 10.0 mi South 9.2 mph - N/A   Light Drizzle
3:15 AM 58.8 °F - 53.6 °F 83% 29.69 in 10.0 mi SSE 9.2 mph - N/A   Overcast
3:35 AM 58.3 °F - 53.6 °F 84% 29.67 in 10.0 mi SE 8.1 mph - N/A   Overcast
3:55 AM 58.3 °F - 53.6 °F 84% 29.67 in 10.0 mi SE 8.1 mph - N/A   Overcast
4:15 AM 58.8 °F - 53.8 °F 83% 29.68 in 10.0 mi South 8.1 mph - N/A   Overcast
4:35 AM 58.3 °F - 54.5 °F 87% 29.71 in 5.0 mi South 10.4 mph - 0.16 in Rain Rain
4:55 AM 57.7 °F - 54.7 °F 90% 29.69 in 7.0 mi SSE 10.4 mph - 0.23 in Rain Light Rain
5:35 AM 57.6 °F - 54.9 °F 91% 29.67 in 7.0 mi SE 4.6 mph - 0.07 in Rain Rain
5:55 AM 57.4 °F - 54.9 °F 91% 29.66 in 10.0 mi SE 4.6 mph - 0.08 in Rain Light Rain
6:15 AM 57.6 °F - 55.0 °F 91% 29.68 in 7.0 mi South 4.6 mph - 0.03 in Rain Light Rain
6:35 AM 47.5 °F - 44.6 °F 90% 29.69 in 5.0 mi NW 18.4 mph 23.0 mph 0.08 in Rain Heavy Rain
6:55 AM 43.3 °F 35.8 °F 41.0 °F 91% 29.71 in 4.0 mi NW 16.1 mph - 0.13 in Rain Light Rain
7:35 AM 41.0 °F 32.8 °F 38.8 °F 92% 29.76 in 7.0 mi WNW 16.1 mph 24.2 mph 0.07 in Rain Rain
8:15 AM 37.8 °F 30.7 °F 35.6 °F 92% 29.75 in 3.0 mi NW 10.4 mph 13.8 mph 0.06 in Rain Rain
8:35 AM 37.8 °F 33.3 °F 35.8 °F 93% 29.76 in 3.0 mi NW 5.8 mph - 0.12 in Rain Rain
8:55 AM 37.4 °F 27.8 °F 35.2 °F 92% 29.78 in 7.0 mi WNW 17.3 mph 24.2 mph 0.14 in Rain Light Rain
9:15 AM 36.5 °F 27.8 °F 34.2 °F 91% 29.77 in 5.0 mi WNW 13.8 mph 21.9 mph 0.01 in Rain Light Rain
9:35 AM 36.1 °F 28.2 °F 33.8 °F 91% 29.78 in 10.0 mi NW 11.5 mph 16.1 mph 0.01 in Rain Light Rain
9:55 AM 35.6 °F 25.2 °F 33.3 °F 91% 29.83 in 3.0 mi WNW 18.4 mph 24.2 mph 0.03 in Rain Light Rain
10:15 AM 35.4 °F 25.6 °F 33.1 °F 91% 29.81 in 4.0 mi WNW 16.1 mph 19.6 mph 0.01 in Rain Light Rain
10:35 AM 34.0 °F 23.0 °F 32.0 °F 92% 29.83 in 7.0 mi WNW 18.4 mph 23.0 mph 0.01 in Rain Light Rain
11:15 AM 33.3 °F 25.1 °F 31.8 °F 94% 29.83 in 2.0 mi NW 10.4 mph 16.1 mph 0.06 in Rain Rain
11:35 AM 33.4 °F 24.3 °F 32.0 °F 94% 29.84 in 4.0 mi WNW 12.7 mph - 0.09 in Rain Light Rain
12:15 PM 32.4 °F 22.1 °F 30.7 °F 94% 29.83 in 5.0 mi WNW 15.0 mph - N/A Rain Light Rain
12:35 PM 32.0 °F 22.5 °F 30.2 °F 93% 29.86 in 7.0 mi WNW 12.7 mph 16.1 mph N/A Snow Light Snow
12:55 PM 32.0 °F 20.8 °F 29.8 °F 92% 29.86 in 10.0 mi WNW 17.3 mph 20.7 mph N/A   Overcast
1:15 PM 32.0 °F 22.5 °F 29.3 °F 90% 29.86 in 10.0 mi WNW 12.7 mph 18.4 mph N/A   Overcast
1:35 PM 31.5 °F 21.4 °F 28.9 °F 90% 29.87 in 10.0 mi WNW 13.8 mph 18.4 mph N/A   Overcast
1:55 PM 31.3 °F 22.7 °F 28.6 °F 90% 29.87 in 7.0 mi WNW 10.4 mph - N/A   Overcast
2:15 PM 31.1 °F 21.4 °F 28.8 °F 91% 29.87 in 7.0 mi WNW 12.7 mph - N/A   Overcast
2:35 PM 30.9 °F 20.2 °F 27.5 °F 87% 29.88 in 10.0 mi WNW 15.0 mph - N/A   Overcast
2:55 PM 30.4 °F 20.0 °F 27.3 °F 88% 29.90 in 10.0 mi WNW 13.8 mph 21.9 mph N/A   Overcast
3:15 PM 30.9 °F 21.7 °F 26.6 °F 84% 29.91 in 10.0 mi WNW 11.5 mph - N/A   Overcast
3:35 PM 31.5 °F 21.8 °F 27.0 °F 83% 29.91 in 10.0 mi WNW 12.7 mph 17.3 mph N/A   Overcast
3:55 PM 31.8 °F 22.8 °F 27.0 °F 82% 29.95 in 10.0 mi WNW 11.5 mph - N/A   Overcast
4:15 PM 31.8 °F 23.9 °F 27.0 °F 82% 29.95 in 10.0 mi West 9.2 mph - N/A   Overcast
4:35 PM 32.0 °F 23.0 °F 27.5 °F 83% 29.95 in 10.0 mi WNW 11.5 mph - N/A   Overcast
4:55 PM 31.6 °F 21.6 °F 26.1 °F 80% 29.96 in 10.0 mi WNW 13.8 mph 20.7 mph N/A   Overcast
5:15 PM 31.1 °F 20.5 °F 25.0 °F 78% 29.97 in 10.0 mi WNW 15.0 mph - N/A   Mostly Cloudy
5:35 PM 30.7 °F 22.0 °F 24.8 °F 79% 29.98 in 10.0 mi WNW 10.4 mph - N/A   Scattered Clouds
5:55 PM 30.2 °F 22.6 °F 25.3 °F 82% 29.99 in 10.0 mi WNW 8.1 mph - N/A   Scattered Clouds
6:15 PM 30.0 °F 19.1 °F 24.4 °F 80% 30.01 in 10.0 mi WNW 15.0 mph - N/A   Scattered Clouds
6:35 PM 29.3 °F 19.1 °F 23.9 °F 80% 30.03 in 10.0 mi West 12.7 mph 17.3 mph N/A   Scattered Clouds
6:55 PM 28.9 °F 19.2 °F 22.5 °F 77% 30.04 in 10.0 mi WNW 11.5 mph - N/A   Clear
7:15 PM 28.4 °F 19.7 °F 22.3 °F 78% 30.06 in 10.0 mi West 9.2 mph - N/A   Clear
7:35 PM 27.5 °F 20.2 °F 22.1 °F 80% 30.06 in 10.0 mi West 6.9 mph - N/A   Clear
7:55 PM 27.1 °F 20.7 °F 21.7 °F 80% 30.07 in 10.0 mi West 5.8 mph - N/A   Clear
8:15 PM 26.8 °F 20.2 °F 21.2 °F 79% 30.07 in 10.0 mi West 5.8 mph - N/A   Clear
8:35 PM 26.6 °F 18.2 °F 21.6 °F 81% 30.07 in 10.0 mi West 8.1 mph - N/A   Clear
8:55 PM 26.6 °F 16.8 °F 21.2 °F 80% 30.08 in 10.0 mi West 10.4 mph - N/A   Clear
9:15 PM 26.6 °F 17.5 °F 21.0 °F 79% 30.09 in 10.0 mi West 9.2 mph - N/A   Clear
9:35 PM 26.6 °F 14.7 °F 20.1 °F 77% 30.09 in 10.0 mi West 15.0 mph 18.4 mph N/A   Clear
9:55 PM 26.4 °F 16.0 °F 19.0 °F 74% 30.11 in 10.0 mi WNW 11.5 mph - N/A   Clear
10:15 PM 25.7 °F 17.1 °F 18.5 °F 74% 30.11 in 10.0 mi WNW 8.1 mph - N/A   Clear
10:35 PM 24.4 °F 17.5 °F 18.5 °F 78% 30.12 in 10.0 mi West 5.8 mph - N/A   Clear
10:55 PM 23.7 °F 17.8 °F 18.5 °F 80% 30.13 in 10.0 mi WSW 4.6 mph - N/A   Clear
11:15 PM 23.7 °F 16.6 °F 18.5 °F 80% 30.13 in 10.0 mi WSW 5.8 mph - N/A   Clear
11:35 PM 23.7 °F 16.6 °F 18.5 °F 80% 30.13 in 10.0 mi WSW 5.8 mph - N/A   Clear
11:55 PM 23.9 °F 15.0 °F 18.7 °F 80% 30.13 in 10.0 mi West 8.1 mph - N/A   Clear